Regional Weather Roundup
Issued by NWS

Home | Current Version | Previous Version | Graphics & Text | Print | Product List | Glossary On
Versions: 1 2 3 4 5 6 7 8 9 10 11 12 13 14 15 16 17 18 19 20 21 22 23 24 25 26 27 28 29 30 31 32 33 34 35 36 37 38 39 40 41 42 43 44 45 46 47 48 49 50
000
ASUS43 KLMK 290902
RWRKY
KENTUCKY REGIONAL WEATHER ROUNDUP
NATIONAL WEATHER SERVICE LOUISVILLE KY
500 AM EDT SUN MAY 29 2016

NOTE "FAIR" INDICATES FEW OR NO CLOUDS BELOW 12,000 FEET
WITH NO SIGNIFICANT WEATHER AND/OR OBSTRUCTIONS TO VISIBILITY.

KYZ001>023-026-027-061>063-070>075-291000-
WESTERN AND SOUTH CENTRAL KENTUCKY

CITY           SKY/WX    TMP DP  RH WIND       PRES   REMARKS
PADUCAH        PTCLDY    69  64  84 CALM      30.04R
HENDERSON      CLEAR     66  61  82 CALM      30.05R
OWENSBORO      PTCLDY    68  67  96 S5        30.07R
HOPKINSVILLE   NOT AVBL
BOWLING GREEN  FOG       65  64  97 CALM      30.09S VSB 3/4
GLASGOW        NOT AVBL
$$

KYZ024-025-028>034-038-045-046-053-291000-
NORTH CENTRAL KENTUCKY

CITY           SKY/WX    TMP DP  RH WIND       PRES   REMARKS
LOUISVILLE/SDF CLOUDY    67  64  90 SE3       30.07S
LOUISVILLE/LOU CLOUDY    70  63  78 CALM      30.08S
FORT KNOX      CLOUDY    67  64  90 CALM      30.07S
$$

KYZ035>037-039>044-047>052-055>060-089>105-291000-
NORTHEAST KENTUCKY

CITY           SKY/WX    TMP DP  RH WIND       PRES   REMARKS
LEXINGTON      CLOUDY    69  62  78 SE6       30.11S
COVINGTON      CLOUDY    69  63  81 S7        30.09S
FRANKFORT      CLOUDY    67  62  84 CALM      30.09S
$$

KYZ054-064>069-076>088-106>120-291000-
SOUTHEAST KENTUCKY

CITY           SKY/WX    TMP DP  RH WIND       PRES   REMARKS
JACKSON        PTCLDY    68  64  87 CALM      30.14S
LONDON         CLOUDY    66  63  90 CALM      30.13S
SOMERSET       NOT AVBL
MIDDLESBORO    CLOUDY    64  63  98 CALM      30.14F
MONTICELLO     PTSUNNY   63  62  97 NW8       30.14S
$$





USA.gov is the U.S. government's official web portal to all federal, state and local government web resources and services.